[[{"header":{"parameterUnit":"m.s-1","parameterCategory":2,"la1":30.2991,"la2":30.254,"lo1":-89.0895,"lo2":-89.0444,"dy":0.0017,"dx":0.0017,"nx":28,"ny":28,"refTime":"2023-07-29T09:00:00:Z","depth":"0","parameterNumber":2,"parameterNumberName":"U-component_of_CURRENTS"},"data":[0,0,0,0,0,0,0,0,0,0,0,0,0,0,0,0,0,0,0,0,0,0,0,0,0,0,0,0,0,0,0,0,0,0,0,0,0,0,0,0,0,0,0,0,0,0,0,0,0,0,0,0,0,0,0,0,0,0,0.3515,0.3516,0,0.3538,0.3538,0.3538,0.3494,0.3493,0.3492,0.349,0.3476,0.3477,0.3477,0,0,0,0,0,0,0,0,0,0,0,0,0,0.3479,0.3479,0.3515,0.3516,0.3516,0.3538,0.3538,0.3538,0.3494,0.3493,0.3491,0.349,0.3476,0.3477,0.3478,0,0,0,0,0,0,0,0,0,0,0,0,0,0.3494,0.3479,0.3515,0.3499,0.3498,0.3538,0.3538,0.3538,0.3494,0.3493,0.3491,0.3489,0.3476,0.3477,0.3478,0.352,0,0,0.3481,0.3481,0,0,0,0,0,0,0,0,0.3494,0.3495,0.3501,0.35,0.3499,0.3514,0.352,0.3531,0.3495,0.3493,0.349,0.3488,0.3489,0.3489,0.3493,0.3519,0.3519,0.3481,0.3482,0.3482,0.3483,0,0,0,0,0,0,0,0.3492,0.3495,0.3521,0.3502,0.3501,0.3507,0.3506,0.3522,0.3497,0.3493,0.349,0.3498,0.3487,0.3492,0.3492,0.3518,0.3481,0.3482,0.3483,0.3483,0.3625,0.3628,0,0,0,0,0,0,0.3495,0.3493,0.3521,0.3522,0.3495,0.3509,0.3508,0.3509,0.3498,0.3496,0.35,0.3496,0.3491,0.3491,0.3492,0.3563,0.3482,0.3483,0.3484,0.3622,0.3626,0.3629,0,0,0,0,0,0,0.3494,0.3497,0.352,0.3511,0.3515,0.3511,0.3512,0.351,0.3518,0.3504,0.35,0.3511,0.349,0.349,0.3523,0.3561,0.3484,0.3485,0.3618,0.3623,0.3628,0.3691,0,0,0,0,0,0,0.3493,0.3497,0.3499,0.3511,0.3515,0.3549,0.3514,0.3512,0.3527,0.3523,0.3513,0.3509,0.3488,0.3522,0.3525,0.3561,0.3486,0.3614,0.3621,0.3626,0.3685,0.3698,0.3708,0,0,0,0,0,0.3492,0.3506,0.3498,0.3502,0.3518,0.3551,0.3554,0.3543,0.353,0.3542,0.3543,0.3509,0.3561,0.3526,0.3528,0.3565,0.3612,0.3619,0.3626,0.368,0.3695,0.3708,0,0,0,0,0,0,0.3498,0.3504,0.3495,0.3511,0.3532,0.3544,0.3561,0.3557,0.3569,0.3562,0.3544,0.3543,0.3592,0.3581,0.3542,0.3629,0.3584,0.3592,0.3625,0.3639,0.365,0.3678,0.3486,0,0,0,0,0,0.3501,0.3504,0.3522,0.3535,0.3551,0.356,0.3573,0.3566,0.358,0.3582,0.3582,0.3594,0.3626,0.363,0.3653,0.3694,0.3705,0.3725,0.3737,0.3746,0.3775,0.3849,0.3869,0.3652,0.3652,0.3652,0,0,0.3506,0.3512,0.3512,0.3536,0.3552,0.3585,0.3563,0.3588,0.3619,0.3582,0.3627,0.3636,0.3651,0.37,0.372,0.3689,0.3808,0.3755,0.3762,0.3787,0.3858,0.3879,0.3897,0.3657,0.3656,0.3656,0,0,0.3525,0.353,0.3541,0.3564,0.359,0.3607,0.362,0.3643,0.3657,0.3703,0.3696,0.3748,0.3766,0.3803,0.382,0.3919,0.3874,0.3904,0.3971,0.4041,0.4059,0.4076,0.4082,0.4098,0.3899,0.3899,0.3899,0,0.3531,0.354,0.3554,0.3582,0.3607,0.3623,0.3656,0.3689,0.3718,0.3744,0.3725,0.3818,0.3834,0.3919,0.3952,0.3948,0.3943,0.3906,0.4055,0.4071,0.4087,0.4089,0.4107,0.3903,0.3903,0.3902,0.3902,0,0.3555,0.3569,0.359,0.3623,0.3664,0.3691,0.3745,0.3785,0.3807,0.3827,0.3914,0.3954,0.4006,0.4024,0.4016,0.4132,0.4076,0.4064,0.4012,0.4112,0.4108,0.4125,0.3909,0.3907,0.3906,0.3905,0,0,0.3534,0.3589,0.3592,0.3617,0.368,0.3716,0.3799,0.3867,0.392,0.3965,0.4045,0.413,0.4139,0.4166,0.4173,0.4239,0.4342,0.4191,0.4193,0.4183,0.4439,0.4166,0.4156,0.4333,0.4337,0.4341,0.4379,0,0.354,0.3588,0.362,0.3682,0.3721,0.3778,0.3857,0.3926,0.3984,0.4068,0.4137,0.4214,0.4195,0.4228,0.4298,0.4341,0.4394,0.433,0.4358,0.4359,0.4093,0.4171,0.3937,0.393,0.4395,0.4397,0.4399,0,0.3533,0.3575,0.3629,0.3715,0.374,0.3789,0.3915,0.3982,0.4106,0.4159,0.4246,0.4281,0.4405,0.438,0.4504,0.4447,0.4461,0.4484,0.4485,0.4226,0.4118,0.3916,0.3943,0.3892,0.4424,0.4422,0.4421,0,0.3501,0.3572,0.3615,0.3642,0.3754,0.3805,0.3874,0.3999,0.4067,0.4222,0.4273,0.4401,0.4464,0.454,0.4548,0.4544,0.4645,0.4648,0.4415,0.4393,0.4202,0.4154,0.4174,0.4756,0.4755,0.4755,0.4755,0,0.3484,0.3524,0.3601,0.3628,0.3703,0.3793,0.389,0.3982,0.4117,0.4184,0.4306,0.4365,0.4508,0.4548,0.4581,0.4504,0.4666,0.4442,0.44,0.4208,0.4163,0.4112,0.4123,0.4757,0.4756,0.4756,0.4756,0,0.3457,0.3497,0.355,0.3651,0.3684,0.3744,0.3879,0.3957,0.408,0.418,0.4229,0.4361,0.4386,0.4448,0.4554,0.4492,0.4351,0.4424,0.4139,0.406,0.3751,0.3772,0.3588,0.3504,0.42,0.4194,0.4189,0,0.3457,0.3473,0.3544,0.3584,0.3632,0.3728,0.3802,0.3934,0.4009,0.4137,0.4175,0.4226,0.4196,0.4196,0.4131,0.409,0.4091,0.3851,0.3818,0.3701,0.37,0.3602,0.3544,0.3602,0.3592,0.3584,0.3577,0,0.3467,0.347,0.3519,0.3568,0.3631,0.3694,0.3792,0.3821,0.3955,0.3992,0.3979,0.3949,0.389,0.3702,0.3624,0.3596,0.364,0.3676,0.3685,0.3327,0.3104,0.301,0.3584,0.3507,0.3514,0.3519,0.3523,0.3526,0.3469,0.3478,0.3506,0.3535,0.3599,0.3603,0.3574,0.3646,0.3649,0.3581,0.3697,0.3528,0.3426,0.324,0.3179,0.2962,0.3076,0.2905,0.2971,0.2905,0.2719,0.3066,0.2843,0.2846,0.2849,0.2852,0.2854,0,0.3421,0.3425,0.3475,0.3461,0.3448,0.351,0.3516,0.3415,0.3276,0.3269,0.3164,0.2959,0.2742,0.2672,0.2467,0.2339,0.2291,0.2306,0.2229,0.2238,0.2669,0.2536,0.2076,0.2076,0.2076,0.2077,0.2077,0.2077,0.3401,0.3383,0.3364,0.3279,0.3268,0.3131,0.3062,0.2917,0.2846,0.2567,0.2399,0.2365,0.2394,0.2258,0.2069,0.2004,0.1965,0.1744,0.1891,0.2316,0.2382,0.2444,0.2325,0.1828,0.1828,0.1325,0.1321,0.1319]},{"header":{"parameterUnit":"m.s-1","parameterCategory":2,"la1":30.2991,"la2":30.254,"lo1":-89.0895,"lo2":-89.0444,"dy":0.0017,"dx":0.0017,"nx":28,"ny":28,"refTime":"2023-07-29T09:00:00:Z","depth":"0","parameterNumber":3,"parameterNumberName":"V-component_of_CURRENTS"},"data":[0,0,0,0,0,0,0,0,0,0,0,0,0,0,0,0,0,0,0,0,0,0,0,0,0,0,0,0,0,0,0,0,0,0,0,0,0,0,0,0,0,0,0,0,0,0,0,0,0,0,0,0,0,0,0,0,0,0,0.038,0.038,0,0.0366,0.0366,0.0366,0.0336,0.0336,0.0335,0.0335,0.0327,0.0327,0.0327,0,0,0,0,0,0,0,0,0,0,0,0,0,0.0363,0.0363,0.038,0.038,0.038,0.0366,0.0366,0.0366,0.0336,0.0336,0.0335,0.0335,0.0327,0.0327,0.0327,0,0,0,0,0,0,0,0,0,0,0,0,0,0.0361,0.0364,0.038,0.0365,0.0363,0.0366,0.0366,0.0366,0.0336,0.0336,0.0335,0.0334,0.0327,0.0327,0.0327,0.0342,0,0,0.0328,0.0328,0,0,0,0,0,0,0,0,0.0361,0.0361,0.0367,0.0366,0.0364,0.0354,0.0357,0.0359,0.0337,0.0345,0.0335,0.0334,0.0338,0.0337,0.0334,0.0342,0.0342,0.0328,0.0328,0.0328,0.0328,0,0,0,0,0,0,0,0.0361,0.0361,0.0373,0.0367,0.0365,0.0353,0.0352,0.0357,0.0344,0.0344,0.0342,0.0344,0.0337,0.0333,0.0333,0.0342,0.0328,0.0328,0.0328,0.0329,0.0376,0.0377,0,0,0,0,0,0,0.0368,0.0362,0.0373,0.0372,0.0363,0.0354,0.0353,0.0356,0.0344,0.0342,0.0344,0.0342,0.0333,0.0333,0.0333,0.0368,0.0328,0.0329,0.0329,0.0375,0.0376,0.0378,0,0,0,0,0,0,0.0368,0.0369,0.0374,0.0368,0.0368,0.0355,0.036,0.0357,0.0356,0.0344,0.0342,0.0347,0.0333,0.0332,0.0345,0.0367,0.0329,0.0329,0.0374,0.0376,0.0377,0.0426,0,0,0,0,0,0,0.0367,0.0369,0.0373,0.0368,0.0368,0.0381,0.036,0.0357,0.0358,0.0355,0.0346,0.0344,0.0332,0.0345,0.0346,0.0366,0.0329,0.0372,0.0375,0.0377,0.0423,0.043,0.0435,0,0,0,0,0,0.0367,0.0377,0.0373,0.0374,0.0374,0.0382,0.0381,0.0368,0.0359,0.0364,0.0359,0.0344,0.0358,0.0346,0.0347,0.0368,0.0371,0.0374,0.0376,0.0421,0.0428,0.0435,0,0,0,0,0,0,0.0368,0.0375,0.037,0.0381,0.0384,0.0378,0.0384,0.0375,0.0374,0.0374,0.0359,0.0357,0.0376,0.0368,0.0355,0.0388,0.0363,0.0365,0.0397,0.0403,0.0409,0.0452,0.033,0,0,0,0,0,0.0372,0.0385,0.0385,0.0395,0.04,0.0394,0.0395,0.0389,0.0388,0.0387,0.0381,0.0381,0.0387,0.0391,0.0393,0.0414,0.0422,0.0428,0.0433,0.0438,0.0474,0.0505,0.0517,0.0386,0.0386,0.0386,0,0,0.0375,0.0382,0.0387,0.0397,0.0399,0.0418,0.0393,0.0403,0.042,0.0388,0.0411,0.0401,0.0397,0.0417,0.0425,0.0413,0.0474,0.0441,0.0445,0.0479,0.0509,0.0522,0.0533,0.0387,0.0387,0.0387,0,0,0.0397,0.0396,0.0418,0.0426,0.0437,0.0437,0.0443,0.0444,0.0446,0.0465,0.0448,0.0465,0.0462,0.0475,0.0478,0.0522,0.0502,0.0505,0.0572,0.06,0.0612,0.0622,0.0624,0.0634,0.0509,0.0509,0.0509,0,0.04,0.043,0.0424,0.0451,0.0467,0.0451,0.0482,0.0483,0.0487,0.051,0.048,0.052,0.0501,0.0555,0.0558,0.0539,0.0537,0.0542,0.0609,0.062,0.0629,0.0629,0.0639,0.0512,0.0512,0.0511,0.0511,0,0.0445,0.0466,0.0483,0.0514,0.0526,0.0551,0.0557,0.0573,0.0572,0.0582,0.063,0.0616,0.0651,0.0631,0.0603,0.0666,0.0633,0.061,0.0593,0.0646,0.0641,0.0651,0.0516,0.0515,0.0514,0.0513,0,0,0.0462,0.0507,0.0513,0.0546,0.0566,0.0589,0.0622,0.0664,0.072,0.071,0.0792,0.0778,0.0782,0.0788,0.0761,0.0773,0.0811,0.0718,0.0718,0.0724,0.0854,0.077,0.0772,0.0789,0.0792,0.0794,0.0813,0,0.0503,0.0571,0.0579,0.0644,0.0682,0.0687,0.073,0.0764,0.0792,0.0863,0.0865,0.0923,0.0838,0.0868,0.0867,0.0841,0.0844,0.0807,0.0801,0.0801,0.0724,0.0784,0.075,0.0759,0.0822,0.0824,0.0825,0,0.0548,0.0593,0.0665,0.0736,0.0756,0.0788,0.088,0.092,0.0997,0.1031,0.1084,0.1087,0.1125,0.1043,0.1033,0.1008,0.0943,0.0902,0.0902,0.0825,0.0738,0.0722,0.0775,0.0718,0.0841,0.084,0.0839,0,0.0583,0.0653,0.072,0.0742,0.0815,0.0856,0.0898,0.0974,0.1056,0.1155,0.124,0.1259,0.1309,0.1241,0.1132,0.1094,0.1108,0.1048,0.0913,0.0904,0.088,0.0865,0.0888,0.105,0.105,0.105,0.105,0,0.0629,0.0682,0.0745,0.0786,0.0886,0.0912,0.1035,0.1086,0.121,0.1345,0.1339,0.1449,0.1362,0.1346,0.1212,0.1098,0.117,0.0954,0.0921,0.089,0.0876,0.0827,0.0786,0.1051,0.1051,0.1051,0.1051,0,0.0659,0.0695,0.0784,0.0872,0.0905,0.0981,0.1119,0.1229,0.1321,0.1506,0.1554,0.1622,0.1589,0.1465,0.1371,0.122,0.1052,0.1036,0.0986,0.0946,0.0741,0.0702,0.0686,0.0671,0.0908,0.0906,0.0905,0,0.0688,0.0734,0.0846,0.0916,0.0958,0.107,0.1169,0.1279,0.1416,0.1612,0.1726,0.1752,0.1777,0.159,0.1328,0.1097,0.102,0.0917,0.0838,0.0755,0.0689,0.0657,0.0645,0.0817,0.0815,0.0813,0.0812,0,0.0756,0.0789,0.087,0.0995,0.1103,0.1236,0.1382,0.1502,0.1664,0.1806,0.1969,0.1994,0.181,0.1569,0.1243,0.1067,0.0868,0.0872,0.0828,0.0665,0.0599,0.0558,0.0759,0.0797,0.0798,0.0799,0.08,0.0801,0.0818,0.0882,0.0982,0.1099,0.1231,0.1395,0.1507,0.1668,0.1863,0.2046,0.2077,0.2089,0.1783,0.1322,0.1111,0.0721,0.074,0.0597,0.057,0.0556,0.0511,0.0657,0.0622,0.0622,0.0623,0.0623,0.0623,0,0.0889,0.0961,0.1081,0.1235,0.1381,0.1434,0.1657,0.1762,0.1957,0.2068,0.2139,0.1959,0.1583,0.1228,0.0703,0.0472,0.0416,0.0371,0.0354,0.0367,0.0539,0.0504,0.0392,0.0392,0.0392,0.0392,0.0392,0.0392,0.0938,0.1048,0.1098,0.1332,0.1447,0.1628,0.1748,0.1886,0.1986,0.2045,0.2012,0.1973,0.1741,0.0905,0.0412,0.0305,0.0227,0.0139,0.0145,0.0279,0.0299,0.0319,0.0278,0.0121,0.0121,-0.0004,-0.0006,-0.0007]}],[{"header":{"parameterUnit":"m.s-1","parameterCategory":2,"la1":30.2991,"la2":30.254,"lo1":-89.0895,"lo2":-89.0444,"dy":0.0017,"dx":0.0017,"nx":28,"ny":28,"refTime":"2023-07-29T09:00:00:Z","depth":"2","parameterNumber":2,"parameterNumberName":"U-component_of_CURRENTS"},"data":[0,0,0,0,0,0,0,0,0,0,0,0,0,0,0,0,0,0,0,0,0,0,0,0,0,0,0,0,0,0,0,0,0,0,0,0,0,0,0,0,0,0,0,0,0,0,0,0,0,0,0,0,0,0,0,0,0,0,0.2624,0.2625,0,0.2669,0.2669,0.2669,0.2682,0.2682,0.2682,0.2682,0.2708,0.2708,0.2709,0,0,0,0,0,0,0,0,0,0,0,0,0,0.264,0.2638,0.2624,0.2625,0.2626,0.2668,0.2669,0.2669,0.2682,0.2682,0.2682,0.2682,0.2708,0.2708,0.2709,0,0,0,0,0,0,0,0,0,0,0,0,0,0.2651,0.2638,0.2624,0.2639,0.2641,0.2668,0.2669,0.2669,0.2682,0.2682,0.2682,0.2682,0.2707,0.2708,0.2709,0.2716,0,0,0.2712,0.2713,0,0,0,0,0,0,0,0,0.265,0.265,0.2636,0.2638,0.264,0.2672,0.2684,0.2685,0.2682,0.2664,0.2682,0.2682,0.2696,0.2698,0.2703,0.2717,0.2718,0.2713,0.2713,0.2714,0.2714,0,0,0,0,0,0,0,0.2649,0.2649,0.2639,0.2637,0.264,0.2674,0.2675,0.2684,0.2677,0.2666,0.2667,0.2676,0.2696,0.2702,0.2704,0.2719,0.2713,0.2713,0.2714,0.2714,0.28,0.2802,0,0,0,0,0,0,0.2643,0.2647,0.2638,0.2641,0.2648,0.2674,0.2674,0.266,0.2677,0.2681,0.2676,0.2677,0.27,0.2702,0.2704,0.2788,0.2714,0.2715,0.2715,0.2798,0.28,0.2802,0,0,0,0,0,0,0.2643,0.2641,0.2636,0.2649,0.2651,0.2673,0.2657,0.2661,0.2695,0.2686,0.2689,0.271,0.27,0.2703,0.2747,0.2786,0.2715,0.2716,0.2796,0.2799,0.2801,0.2906,0,0,0,0,0,0,0.2643,0.264,0.2646,0.2647,0.265,0.267,0.2658,0.2662,0.27,0.2702,0.2716,0.2717,0.27,0.2745,0.2748,0.2786,0.2717,0.2794,0.2798,0.28,0.2901,0.2912,0.2922,0,0,0,0,0,0.2643,0.2645,0.2645,0.2645,0.2649,0.2671,0.2676,0.2691,0.2702,0.2722,0.2741,0.2718,0.2766,0.2748,0.275,0.279,0.2793,0.2797,0.28,0.2896,0.291,0.2921,0,0,0,0,0,0,0.2644,0.2647,0.2647,0.2646,0.2667,0.2674,0.2696,0.2713,0.2744,0.2755,0.2746,0.2749,0.2798,0.2781,0.2762,0.2822,0.2773,0.2777,0.2845,0.2858,0.2868,0.2889,0.2718,0,0,0,0,0,0.2649,0.2659,0.2663,0.2669,0.2676,0.2695,0.2714,0.2729,0.275,0.2765,0.277,0.2783,0.2811,0.2826,0.2832,0.2873,0.2874,0.2896,0.2907,0.2916,0.2934,0.3005,0.3024,0.2814,0.2814,0.2814,0,0,0.2655,0.2657,0.2664,0.2673,0.2685,0.2709,0.2706,0.2743,0.2777,0.2763,0.2808,0.2822,0.283,0.2873,0.2893,0.2869,0.2967,0.2921,0.2929,0.2942,0.3011,0.3032,0.305,0.2817,0.2816,0.2816,0,0,0.2667,0.2667,0.268,0.2703,0.2735,0.2746,0.2765,0.2787,0.2811,0.2861,0.2864,0.2925,0.293,0.2967,0.2983,0.3062,0.3022,0.3038,0.3113,0.3182,0.32,0.3217,0.3209,0.3224,0.3043,0.3044,0.3044,0,0.2673,0.2679,0.2692,0.2714,0.2733,0.2765,0.2787,0.2825,0.2864,0.2889,0.2887,0.2965,0.2989,0.307,0.3103,0.3093,0.3083,0.3066,0.3198,0.3215,0.323,0.3219,0.3234,0.3049,0.3048,0.3048,0.3047,0,0.2705,0.2711,0.2722,0.2753,0.278,0.281,0.285,0.2896,0.2929,0.2956,0.3039,0.3088,0.3143,0.3156,0.3162,0.3273,0.3213,0.3206,0.3171,0.3258,0.3239,0.3253,0.3057,0.3055,0.3053,0.3052,0,0,0.2697,0.2732,0.2737,0.2757,0.2803,0.2831,0.2894,0.2948,0.3016,0.3063,0.3144,0.3228,0.3264,0.3287,0.331,0.3377,0.3488,0.3339,0.334,0.3339,0.3577,0.3351,0.3343,0.3495,0.3499,0.3502,0.3508,0,0.2709,0.2739,0.2761,0.2809,0.2822,0.2876,0.2934,0.3003,0.3064,0.3155,0.3231,0.3314,0.3309,0.3367,0.344,0.3489,0.3534,0.3483,0.3486,0.3486,0.3283,0.3357,0.3116,0.3085,0.3521,0.3523,0.3525,0,0.2723,0.2742,0.277,0.2828,0.2843,0.2896,0.3002,0.308,0.3205,0.3243,0.3342,0.3392,0.3526,0.3512,0.3633,0.3591,0.3599,0.3614,0.3614,0.3382,0.3288,0.3075,0.3093,0.3548,0.3546,0.3545,0.3543,0,0.2699,0.2746,0.2767,0.2792,0.287,0.292,0.2997,0.311,0.3173,0.3336,0.3388,0.3513,0.3605,0.3663,0.369,0.3682,0.3774,0.3772,0.3558,0.3539,0.3324,0.3279,0.3851,0.3851,0.3851,0.3851,0.3851,0,0.2683,0.2708,0.2773,0.2795,0.2848,0.2943,0.305,0.3123,0.3261,0.3329,0.3464,0.3517,0.3654,0.3704,0.3719,0.3655,0.3799,0.358,0.3544,0.3343,0.3302,0.3701,0.3684,0.3851,0.3851,0.3851,0.3851,0,0.2645,0.2676,0.273,0.2822,0.2828,0.2913,0.3033,0.3128,0.3263,0.3367,0.3417,0.3547,0.3598,0.3653,0.3735,0.3665,0.3649,0.3578,0.3284,0.3212,0.3359,0.3347,0.3376,0.3369,0.3362,0.3357,0.3353,0,0.2613,0.2637,0.2728,0.2745,0.2786,0.2896,0.2946,0.3089,0.3162,0.3342,0.3363,0.3468,0.3451,0.3457,0.3392,0.3331,0.3465,0.3041,0.3,0.3358,0.3321,0.3319,0.3316,0.2754,0.2745,0.2738,0.2732,0,0.2567,0.263,0.2678,0.2694,0.2747,0.2826,0.2912,0.2923,0.3103,0.3133,0.3165,0.3182,0.3199,0.3012,0.2933,0.2878,0.3037,0.288,0.3389,0.2882,0.2763,0.2729,0.2749,0.2666,0.2673,0.2678,0.2681,0.2684,0.2545,0.2579,0.2621,0.2645,0.2698,0.2731,0.2714,0.2777,0.2787,0.2787,0.2897,0.2819,0.2825,0.2562,0.2441,0.2362,0.2578,0.2479,0.2507,0.2542,0.2439,0.2313,0.2109,0.2112,0.2115,0.2118,0.212,0,0.2488,0.2517,0.2535,0.2531,0.2536,0.2628,0.2642,0.2575,0.2469,0.2517,0.2477,0.2228,0.2068,0.2088,0.1854,0.1792,0.1847,0.172,0.1802,0.1866,0.1924,0.1795,0.1292,0.1289,0.1287,0.1285,0,0,0.2463,0.2434,0.2441,0.2353,0.2374,0.2311,0.2313,0.2182,0.2145,0.1996,0.1919,0.2039,0.2052,0.1681,0.1593,0.1409,0.1648,0.135,0.2018,0.2184,0.2239,0.2357,0.2228,0,0,0,0,0]},{"header":{"parameterUnit":"m.s-1","parameterCategory":2,"la1":30.2991,"la2":30.254,"lo1":-89.0895,"lo2":-89.0444,"dy":0.0017,"dx":0.0017,"nx":28,"ny":28,"refTime":"2023-07-29T09:00:00:Z","depth":"2","parameterNumber":3,"parameterNumberName":"V-component_of_CURRENTS"},"data":[0,0,0,0,0,0,0,0,0,0,0,0,0,0,0,0,0,0,0,0,0,0,0,0,0,0,0,0,0,0,0,0,0,0,0,0,0,0,0,0,0,0,0,0,0,0,0,0,0,0,0,0,0,0,0,0,0,0,0.016,0.016,0,0.0141,0.0141,0.014,0.0125,0.0125,0.0125,0.0125,0.0112,0.0112,0.0112,0,0,0,0,0,0,0,0,0,0,0,0,0,0.0157,0.0158,0.016,0.016,0.016,0.0141,0.0141,0.014,0.0125,0.0125,0.0125,0.0125,0.0112,0.0112,0.0112,0,0,0,0,0,0,0,0,0,0,0,0,0,0.015,0.0158,0.016,0.0151,0.015,0.0141,0.0141,0.014,0.0125,0.0125,0.0125,0.0125,0.0113,0.0112,0.0112,0.0111,0,0,0.011,0.011,0,0,0,0,0,0,0,0,0.015,0.015,0.0152,0.0151,0.015,0.0136,0.0135,0.0131,0.0125,0.0133,0.0125,0.0125,0.0122,0.012,0.0116,0.011,0.011,0.011,0.011,0.011,0.011,0,0,0,0,0,0,0,0.0151,0.015,0.0151,0.0152,0.0151,0.0139,0.0137,0.0134,0.0128,0.0133,0.0132,0.0131,0.0121,0.0116,0.0115,0.011,0.011,0.011,0.011,0.011,0.0112,0.0112,0,0,0,0,0,0,0.0156,0.0151,0.0152,0.0151,0.0151,0.0139,0.0138,0.014,0.0128,0.0126,0.0131,0.0131,0.0117,0.0116,0.0115,0.0141,0.011,0.011,0.0109,0.0112,0.0112,0.0113,0,0,0,0,0,0,0.0157,0.0157,0.0153,0.0151,0.015,0.0139,0.0142,0.014,0.0141,0.0127,0.0125,0.0136,0.0117,0.0115,0.0121,0.014,0.0109,0.0109,0.0111,0.0112,0.0112,0.0177,0,0,0,0,0,0,0.0157,0.0157,0.0162,0.0152,0.015,0.0158,0.0142,0.0139,0.0141,0.014,0.013,0.0128,0.0116,0.0122,0.0121,0.0139,0.0109,0.0111,0.0112,0.0112,0.0174,0.0179,0.0184,0,0,0,0,0,0.0157,0.0166,0.0163,0.0163,0.0157,0.0159,0.0158,0.0148,0.0142,0.0148,0.0141,0.0129,0.0125,0.0122,0.0121,0.0139,0.0111,0.0112,0.0112,0.0172,0.0178,0.0183,0,0,0,0,0,0,0.0164,0.0165,0.0161,0.0169,0.0169,0.0157,0.0162,0.0155,0.0153,0.0155,0.0137,0.0135,0.0146,0.013,0.0128,0.0139,0.0114,0.0115,0.016,0.0166,0.017,0.0203,0.0108,0,0,0,0,0,0.0169,0.018,0.0175,0.0183,0.0184,0.0174,0.0174,0.0171,0.0167,0.0166,0.0157,0.0148,0.0146,0.0147,0.0141,0.015,0.0141,0.0158,0.0162,0.0167,0.0191,0.0199,0.0208,0.0115,0.0115,0.0115,0,0,0.0174,0.0177,0.0182,0.0186,0.0184,0.0197,0.0174,0.0182,0.0197,0.0165,0.0181,0.0166,0.0152,0.0163,0.0166,0.0154,0.0181,0.0168,0.0172,0.0194,0.0201,0.021,0.0218,0.0115,0.0115,0.0115,0,0,0.0196,0.0193,0.0212,0.0217,0.0223,0.0218,0.0224,0.0219,0.022,0.023,0.0213,0.0218,0.0204,0.0208,0.0205,0.0233,0.0206,0.0217,0.0272,0.028,0.0288,0.0295,0.0271,0.0275,0.022,0.022,0.0221,0,0.02,0.0227,0.0217,0.0238,0.025,0.0232,0.0257,0.0256,0.0254,0.027,0.0244,0.0251,0.0233,0.0265,0.0269,0.0249,0.0233,0.0254,0.0289,0.0296,0.0302,0.0275,0.028,0.0224,0.0223,0.0223,0.0223,0,0.0243,0.0262,0.0274,0.0298,0.0305,0.0326,0.0324,0.0334,0.0328,0.0332,0.0357,0.0334,0.0348,0.0329,0.0308,0.0346,0.0311,0.0295,0.028,0.0316,0.0284,0.0288,0.0228,0.0227,0.0226,0.0225,0,0,0.0261,0.0298,0.0304,0.0333,0.0343,0.0361,0.0382,0.0409,0.0453,0.0431,0.0488,0.0464,0.0461,0.0458,0.043,0.0427,0.0441,0.0382,0.0381,0.0369,0.0433,0.0372,0.0369,0.0429,0.043,0.0432,0.0384,0,0.0301,0.0359,0.0364,0.0421,0.045,0.0447,0.0478,0.05,0.0514,0.0562,0.0542,0.0581,0.0507,0.0528,0.0512,0.0475,0.0457,0.0454,0.0392,0.039,0.0341,0.0375,0.0392,0.0349,0.0387,0.0388,0.0388,0,0.0344,0.0382,0.0443,0.0502,0.0517,0.0546,0.0611,0.0646,0.0692,0.0708,0.0731,0.0721,0.073,0.0661,0.0606,0.0606,0.053,0.0477,0.0474,0.0406,0.0337,0.0323,0.0353,0.0393,0.0393,0.0393,0.0392,0,0.0377,0.0439,0.0496,0.0515,0.0572,0.0606,0.0644,0.0694,0.076,0.0821,0.0879,0.0861,0.0886,0.0796,0.0674,0.0651,0.0598,0.0556,0.042,0.0412,0.0413,0.0403,0.0516,0.0516,0.0516,0.0516,0.0516,0,0.0418,0.0465,0.0521,0.0558,0.0643,0.0667,0.0772,0.0804,0.0896,0.1,0.0975,0.1035,0.0924,0.0873,0.0732,0.0588,0.0641,0.0445,0.041,0.0429,0.0422,0.0454,0.0447,0.0514,0.0515,0.0515,0.0515,0,0.0441,0.0473,0.0554,0.0633,0.0659,0.0731,0.0852,0.0946,0.1012,0.115,0.1182,0.1189,0.1113,0.0966,0.0826,0.0679,0.0538,0.0464,0.0473,0.044,0.0326,0.0323,0.0325,0.0322,0.032,0.0319,0.0317,0,0.0457,0.0501,0.0612,0.0669,0.0707,0.0812,0.0897,0.0992,0.1101,0.1235,0.1313,0.129,0.1252,0.1011,0.0781,0.0535,0.0502,0.0374,0.0336,0.0348,0.0314,0.0314,0.0314,0.0347,0.0346,0.0346,0.0345,0,0.0502,0.0544,0.0619,0.0731,0.0828,0.0952,0.1078,0.1173,0.1308,0.1386,0.1469,0.1445,0.1252,0.101,0.0691,0.0523,0.0416,0.0347,0.0397,0.0384,0.0363,0.0331,0.0332,0.0338,0.0338,0.0339,0.0339,0.034,0.0544,0.0609,0.0707,0.0813,0.0931,0.1081,0.1179,0.1302,0.1437,0.1553,0.1542,0.149,0.1278,0.0848,0.0593,0.0343,0.0352,0.0241,0.0247,0.0252,0.0255,0.0232,0.018,0.018,0.018,0.0179,0.0179,0,0.0599,0.0674,0.0778,0.0919,0.105,0.1111,0.1295,0.137,0.1488,0.1569,0.1582,0.134,0.1089,0.0842,0.0469,0.023,0.0234,0.0144,0.0211,0.0219,0.0226,0.0231,0.0147,0.0146,0.0145,0.0145,0,0,0.0639,0.0737,0.0791,0.0992,0.1102,0.1269,0.1376,0.1441,0.1504,0.1521,0.1492,0.1455,0.1163,0.088,0.0581,0.0366,0.0343,0.0317,0.0367,0.049,0.05,0.0304,0.0322,0,0,0,0,0]}],[{"header":{"parameterUnit":"m.s-1","parameterCategory":2,"la1":30.2991,"la2":30.254,"lo1":-89.0895,"lo2":-89.0444,"dy":0.0017,"dx":0.0017,"nx":28,"ny":28,"refTime":"2023-07-29T09:00:00:Z","depth":"4","parameterNumber":2,"parameterNumberName":"U-component_of_CURRENTS"},"data":[0,0,0,0,0,0,0,0,0,0,0,0,0,0,0,0,0,0,0,0,0,0,0,0,0,0,0,0,0,0,0,0,0,0,0,0,0,0,0,0,0,0,0,0,0,0,0,0,0,0,0,0,0,0,0,0,0,0,0.1335,0.1335,0,0.1365,0.1366,0.1366,0.1433,0.1434,0.1435,0.1436,0.1492,0.1493,0.1493,0,0,0,0,0,0,0,0,0,0,0,0,0,0.1317,0.1317,0.1335,0.1335,0.1335,0.1365,0.1366,0.1366,0.1432,0.1434,0.1435,0.1437,0.1492,0.1493,0.1493,0,0,0,0,0,0,0,0,0,0,0,0,0,0.1335,0.1317,0.1335,0.1371,0.1375,0.1365,0.1366,0.1367,0.1432,0.1434,0.1436,0.1438,0.1492,0.1493,0.1493,0.1459,0,0,0.1495,0.1495,0,0,0,0,0,0,0,0,0.1334,0.1336,0.1366,0.1369,0.1373,0.1396,0.138,0.1398,0.1432,0.1411,0.1436,0.1439,0.1461,0.1464,0.1466,0.1461,0.1464,0.1495,0.1495,0.1495,0.1495,0,0,0,0,0,0,0,0.1332,0.1334,0.1348,0.1366,0.137,0.138,0.1385,0.1384,0.1426,0.1413,0.1418,0.1419,0.1463,0.1466,0.1468,0.1464,0.1495,0.1495,0.1495,0.1496,0.1573,0.1575,0,0,0,0,0,0,0.1325,0.1333,0.1347,0.1349,0.1356,0.1379,0.1385,0.1388,0.1426,0.1433,0.1417,0.1422,0.1464,0.1468,0.1471,0.1536,0.1495,0.1496,0.1496,0.1571,0.1573,0.1575,0,0,0,0,0,0,0.1325,0.1326,0.1346,0.1341,0.1344,0.1377,0.138,0.1387,0.1425,0.1429,0.1437,0.1452,0.1466,0.147,0.1501,0.1535,0.1496,0.1496,0.1569,0.1572,0.1574,0.16,0,0,0,0,0,0,0.1324,0.1326,0.1341,0.134,0.1344,0.1359,0.1378,0.1386,0.142,0.1427,0.146,0.1465,0.1467,0.1501,0.1502,0.1535,0.1497,0.1567,0.157,0.1573,0.1597,0.1603,0.1608,0,0,0,0,0,0.1323,0.1329,0.1341,0.1343,0.1358,0.1359,0.1363,0.1393,0.142,0.1435,0.1464,0.1466,0.1524,0.1501,0.1503,0.1537,0.1565,0.1569,0.1573,0.1594,0.1602,0.1608,0,0,0,0,0,0,0.1331,0.1336,0.1349,0.1358,0.1368,0.1371,0.1393,0.1407,0.1441,0.1465,0.1472,0.1478,0.1527,0.1525,0.1501,0.1573,0.1551,0.1555,0.1567,0.1574,0.158,0.16,0.1497,0,0,0,0,0,0.1336,0.1346,0.1349,0.1361,0.137,0.1388,0.1399,0.1418,0.1438,0.1457,0.1479,0.1511,0.1536,0.1551,0.1573,0.1592,0.1611,0.1623,0.1629,0.1633,0.1654,0.173,0.1744,0.1588,0.1588,0.1588,0,0,0.1344,0.1348,0.1356,0.1364,0.1382,0.1386,0.1402,0.1429,0.1447,0.1455,0.1505,0.1532,0.1549,0.1586,0.1608,0.1592,0.1678,0.1638,0.1642,0.166,0.1735,0.1751,0.1764,0.1591,0.159,0.159,0,0,0.1352,0.1371,0.1382,0.1391,0.1415,0.1412,0.1425,0.1448,0.1483,0.1513,0.154,0.159,0.1612,0.1642,0.1654,0.1703,0.1712,0.1716,0.1753,0.1826,0.1839,0.1852,0.185,0.1863,0.1712,0.1713,0.1713,0,0.1366,0.1369,0.1386,0.1397,0.1405,0.1424,0.1433,0.1458,0.1493,0.1535,0.154,0.1628,0.1642,0.1697,0.1723,0.1717,0.174,0.1718,0.1833,0.1846,0.1858,0.1855,0.1868,0.1714,0.1714,0.1714,0.1714,0,0.1373,0.1385,0.1395,0.1408,0.142,0.1431,0.1456,0.1494,0.1531,0.1569,0.1657,0.1681,0.1743,0.1751,0.1749,0.1845,0.1824,0.1834,0.1812,0.1876,0.1867,0.188,0.1717,0.1716,0.1716,0.1715,0,0,0.1367,0.1392,0.1398,0.1407,0.1427,0.1432,0.1475,0.1518,0.1572,0.163,0.1708,0.1763,0.1817,0.1837,0.1852,0.1906,0.1991,0.1913,0.1916,0.1904,0.2114,0.1938,0.1934,0.2033,0.2036,0.2039,0.2056,0,0.1365,0.1377,0.1392,0.1403,0.1405,0.1442,0.1477,0.1538,0.1595,0.1679,0.1755,0.1841,0.1837,0.1886,0.1942,0.2002,0.2036,0.1983,0.2062,0.2063,0.1895,0.1948,0.2051,0.2065,0.2068,0.2071,0.2072,0,0.1359,0.1361,0.1374,0.1402,0.1413,0.1432,0.15,0.1544,0.1669,0.1731,0.1836,0.1908,0.2017,0.2002,0.2122,0.2096,0.2115,0.2134,0.2136,0.198,0.1914,0.2002,0.2096,0.2094,0.2092,0.2091,0.2089,0,0.1323,0.1349,0.1354,0.1363,0.1399,0.1438,0.1478,0.1581,0.1649,0.1797,0.187,0.1996,0.2084,0.2154,0.2205,0.2193,0.231,0.2292,0.213,0.2115,0.2256,0.2243,0.237,0.237,0.237,0.237,0.237,0,0.1289,0.1294,0.1349,0.1346,0.1386,0.1438,0.151,0.1578,0.1705,0.1798,0.1919,0.1995,0.2142,0.2222,0.2242,0.2218,0.2344,0.2146,0.2126,0.2257,0.2245,0.2261,0.2249,0.2371,0.2371,0.237,0.237,0,0.123,0.1268,0.1276,0.1332,0.1366,0.1407,0.1524,0.1572,0.1708,0.1829,0.1896,0.2052,0.214,0.2214,0.2318,0.2246,0.2252,0.2204,0.2305,0.2289,0.1988,0.1977,0.2025,0.2019,0.2014,0.201,0.2007,0,0.1178,0.1183,0.1258,0.1284,0.1313,0.1389,0.1434,0.1568,0.1628,0.1836,0.1883,0.2033,0.211,0.21,0.2181,0.2173,0.2145,0.2115,0.2078,0.1986,0.1963,0.1959,0.1954,0.1999,0.1998,0.1997,0.1995,0,0.1079,0.1136,0.1152,0.1208,0.1262,0.1304,0.1394,0.1443,0.1602,0.1741,0.1843,0.1897,0.1964,0.2011,0.2011,0.2007,0.2128,0.2064,0.2074,0.2039,0.1956,0.1937,0.1938,0.1979,0.1981,0.1983,0.1984,0,0.1017,0.1016,0.107,0.1117,0.1173,0.1199,0.1265,0.1339,0.143,0.167,0.1698,0.1832,0.1966,0.1923,0.1934,0.1906,0.1868,0.1803,0.1825,0.1844,0.1773,0.1641,0.156,0,0,0,0,0,0.0961,0.0962,0.0969,0.1014,0.1063,0.1112,0.1214,0.1287,0.1466,0.1495,0.1601,0.1659,0.169,0.1751,0.1681,0.1808,0.185,0.1714,0.1781,0.1887,0.1906,0.1837,0,0,0,0,0,0,0.0921,0.0945,0.0932,0.0918,0.0939,0.0982,0.1052,0.1176,0.1205,0.1397,0.1422,0.1551,0.1596,0.1722,0.1654,0.1664,0.1666,0.1792,0.1787,0.1876,0.1893,0.1909,0.1844,0,0,0,0,0]},{"header":{"parameterUnit":"m.s-1","parameterCategory":2,"la1":30.2991,"la2":30.254,"lo1":-89.0895,"lo2":-89.0444,"dy":0.0017,"dx":0.0017,"nx":28,"ny":28,"refTime":"2023-07-29T09:00:00:Z","depth":"4","parameterNumber":3,"parameterNumberName":"V-component_of_CURRENTS"},"data":[0,0,0,0,0,0,0,0,0,0,0,0,0,0,0,0,0,0,0,0,0,0,0,0,0,0,0,0,0,0,0,0,0,0,0,0,0,0,0,0,0,0,0,0,0,0,0,0,0,0,0,0,0,0,0,0,0,0,0.0108,0.0108,0,0.0096,0.0096,0.0095,0.0081,0.0081,0.0081,0.0081,0.0061,0.006,0.006,0,0,0,0,0,0,0,0,0,0,0,0,0,0.0091,0.0091,0.0108,0.0108,0.0108,0.0096,0.0096,0.0095,0.0081,0.0081,0.0081,0.0081,0.0061,0.0061,0.006,0,0,0,0,0,0,0,0,0,0,0,0,0,0.0089,0.0091,0.0108,0.0101,0.0101,0.0096,0.0096,0.0095,0.0081,0.0081,0.0081,0.0081,0.0061,0.0061,0.006,0.0056,0,0,0.0058,0.0057,0,0,0,0,0,0,0,0,0.0089,0.0089,0.0102,0.0102,0.0101,0.0092,0.0082,0.0083,0.0081,0.0086,0.0081,0.0081,0.0072,0.007,0.0065,0.0055,0.0055,0.0058,0.0057,0.0057,0.0057,0,0,0,0,0,0,0,0.0089,0.0089,0.0101,0.0102,0.0102,0.0089,0.0089,0.0082,0.0078,0.0086,0.0085,0.0087,0.0071,0.0066,0.0065,0.0054,0.0058,0.0057,0.0056,0.0056,0.0042,0.0042,0,0,0,0,0,0,0.0096,0.009,0.0102,0.0101,0.0097,0.009,0.0089,0.0093,0.0078,0.0076,0.0087,0.0087,0.0067,0.0066,0.0064,0.0078,0.0057,0.0056,0.0056,0.0042,0.0042,0.0042,0,0,0,0,0,0,0.0096,0.0098,0.0102,0.0097,0.0097,0.009,0.0095,0.0093,0.0092,0.008,0.0077,0.0089,0.0067,0.0065,0.0066,0.0076,0.0056,0.0055,0.0042,0.0042,0.0042,0.0093,0,0,0,0,0,0,0.0096,0.0098,0.0103,0.0097,0.0097,0.0106,0.0095,0.0093,0.0094,0.0093,0.008,0.0078,0.0067,0.0067,0.0065,0.0075,0.0054,0.0042,0.0042,0.0042,0.0091,0.0095,0.0098,0,0,0,0,0,0.0095,0.0107,0.0104,0.0105,0.0106,0.0106,0.0105,0.0099,0.0094,0.0096,0.0089,0.0078,0.0066,0.0067,0.0064,0.0074,0.0042,0.0042,0.0042,0.009,0.0094,0.0098,0,0,0,0,0,0,0.0104,0.0107,0.0103,0.0115,0.0113,0.0105,0.011,0.0103,0.0098,0.0098,0.0084,0.0081,0.0084,0.007,0.0071,0.0068,0.005,0.005,0.0087,0.0091,0.0094,0.0107,0.0054,0,0,0,0,0,0.0108,0.0119,0.0115,0.0125,0.0126,0.0117,0.0117,0.0112,0.0108,0.0105,0.0099,0.0088,0.0082,0.008,0.0071,0.0073,0.0047,0.0074,0.0078,0.0081,0.0088,0.0055,0.0056,0.0043,0.0043,0.0043,0,0,0.0115,0.0119,0.0124,0.0128,0.0126,0.0136,0.0117,0.0121,0.0132,0.0104,0.0118,0.0102,0.0084,0.0087,0.0087,0.0078,0.0069,0.0081,0.0084,0.009,0.0055,0.0057,0.0058,0.0043,0.0043,0.0043,0,0,0.0135,0.0136,0.015,0.0153,0.0155,0.0152,0.0155,0.015,0.015,0.0156,0.0139,0.013,0.0123,0.0112,0.0105,0.012,0.0088,0.0115,0.0145,0.0113,0.0114,0.0115,0.0079,0.0076,0.0117,0.0117,0.0117,0,0.0141,0.0162,0.0154,0.017,0.0181,0.0163,0.0182,0.0179,0.0175,0.018,0.0168,0.0151,0.0135,0.0135,0.0142,0.0129,0.0104,0.0135,0.0118,0.0118,0.0118,0.0081,0.0078,0.012,0.0119,0.0119,0.0119,0,0.0171,0.0189,0.0199,0.0216,0.0224,0.0238,0.0236,0.0241,0.0237,0.0231,0.0229,0.0201,0.0192,0.0181,0.017,0.0163,0.0143,0.0127,0.0112,0.0123,0.0083,0.0078,0.0123,0.0122,0.0122,0.0121,0,0,0.0182,0.0214,0.0219,0.024,0.0253,0.0265,0.0284,0.0295,0.0307,0.0291,0.0303,0.0281,0.0258,0.0248,0.0222,0.0194,0.0169,0.0167,0.0164,0.0138,0.0095,0.01,0.0094,0.0151,0.0151,0.015,0.0067,0,0.0208,0.0254,0.0262,0.0307,0.0331,0.033,0.0354,0.036,0.0352,0.0357,0.0322,0.0322,0.0285,0.0282,0.0248,0.0192,0.0159,0.0193,0.0083,0.008,0.0087,0.009,0.0149,0.0063,0.0062,0.0061,0.006,0,0.0234,0.0266,0.0317,0.0364,0.0374,0.0399,0.0431,0.0449,0.0444,0.0438,0.0418,0.0387,0.0355,0.0319,0.0222,0.0246,0.0179,0.0126,0.0121,0.0107,0.0075,0.0048,0.0051,0.0051,0.0052,0.0053,0.0053,0,0.0252,0.0304,0.0352,0.0368,0.0413,0.0441,0.0467,0.0477,0.0502,0.0491,0.0494,0.0441,0.0419,0.0331,0.0226,0.0225,0.0109,0.0089,0.0025,0.0024,0.0022,0.0022,0.0017,0.0017,0.0017,0.0018,0.0018,0,0.0277,0.0313,0.0368,0.0395,0.0459,0.0479,0.0533,0.0545,0.0566,0.0594,0.0541,0.0532,0.0421,0.0342,0.024,0.0121,0.0116,0.0033,0.0006,0.0044,0.0048,0.0018,0.0019,0.0014,0.0015,0.0016,0.0016,0,0.0284,0.0318,0.0378,0.0443,0.047,0.0518,0.0594,0.0627,0.0637,0.0668,0.0673,0.0607,0.0501,0.0375,0.0227,0.0146,0.0028,-0.0016,0.0035,0.0012,-0.0043,-0.0038,-0.0094,-0.0095,-0.0095,-0.0095,-0.0096,0,0.0292,0.0324,0.0415,0.0457,0.049,0.0565,0.0616,0.0664,0.0697,0.0707,0.072,0.0639,0.0574,0.0365,0.0229,0.0036,0.0007,-0.0054,-0.0047,-0.0032,-0.0053,-0.0047,-0.0042,-0.0096,-0.0096,-0.0096,-0.0096,0,0.0307,0.034,0.0394,0.0481,0.0548,0.0622,0.0695,0.0729,0.0777,0.0788,0.076,0.0661,0.0537,0.0371,0.0225,0.0084,-0.0011,-0.0059,-0.0059,-0.0053,-0.0035,-0.0054,-0.0049,-0.0098,-0.0098,-0.0098,-0.0097,0,0.0317,0.0355,0.0426,0.0505,0.0582,0.065,0.0695,0.0741,0.0785,0.0801,0.0788,0.0662,0.0598,0.0395,0.0257,0.0126,0.0087,0.0045,0.0039,0.0038,0.0104,0.0148,0.0122,0,0,0,0,0,0.0329,0.0373,0.044,0.0528,0.0602,0.0654,0.0731,0.0768,0.0817,0.0808,0.0806,0.0695,0.0502,0.0411,0.0278,0.023,0.0051,0.007,-0.0004,-0.0105,-0.0104,-0.0048,0,0,0,0,0,0,0.0336,0.04,0.0439,0.0531,0.0589,0.0677,0.073,0.0767,0.0762,0.0786,0.068,0.0662,0.0463,0.0577,0.0275,0.0236,0.0171,-0.0013,-0.0015,-0.0106,-0.0105,-0.0104,-0.0046,0,0,0,0,0]}]]